Home   Weather   Lugo   Past weeks

Flag for Spain Past Weather in Lugo, Galicia, Spain — Yesterday and Last 2 Weeks

59 °F

Thunderstorms. Partly cloudy.

Feels Like: 58 °F
Forecast: 50 / 60 °F
Wind: 7 mph from Southeast

Location: Santiago / Labacolla

Current Time: Oct 22, 2016 at 11:46:34 PM

Latest Report: Oct 22, 2016 at 11:00 PM

Visibility: 4 mi

Pressure: 29.45 "Hg

Humidity: 94%

Dew Point: 57 °F

Location of LugoLocation

Past Weather in Lugo — Graph


Lugo Temperature Yesterday

Maximum temperature yesterday: 70 °F (at 4:00 PM)
Minimum temperature yesterday: 50 °F (at 5:00 AM)
Average temperature yesterday: 58 °F

High & Low Weather Summary for the Past Weeks

High72 °F (Oct 10, 4:00 PM)100% (Oct 8, 12:48 AM)30.33 "Hg (Oct 8, 12:48 AM)
Low43 °F (Oct 14, 7:30 AM)53% (Oct 9, 2:30 PM)29.45 "Hg (Oct 22, 10:30 PM)
Average57 °F87%29.96 "Hg
* Reported Oct 7 10:00 PM — Oct 22 10:30 PM, Lugo, Weather by CustomWeather, © 2016

Note: Actual official high and low records may vary slightly from our data, if they occured in-between our weather recording intervals... More about our weather records


Lugo Weather History for the Previous 24 Hours

Scroll right to see more
Time TempWeatherWind HumidityBarometerVisibility
10:30 PM
Sat, Oct 22
61 °FPassing clouds.8 mph83%29.45 "HgN/A
10:00 PM61 °FPassing clouds.6 mph77%29.47 "HgN/A
9:30 PM61 °FPassing clouds.5 mph77%29.50 "HgN/A
9:00 PM61 °FPassing clouds.3 mph77%29.53 "HgN/A
8:30 PM61 °FPassing clouds.5 mph77%29.53 "HgN/A
8:00 PM63 °FPassing clouds.5 mph73%29.53 "HgN/A
7:30 PM63 °FPartly sunny.5 mph73%29.56 "HgN/A
7:00 PM63 °FPartly sunny.8 mph73%29.56 "HgN/A
6:30 PM63 °FScattered clouds.10 mph73%29.56 "HgN/A
6:00 PM64 °FPartly sunny.9 mph68%29.56 "HgN/A
5:30 PM64 °FPartly sunny.9 mph73%29.59 "HgN/A
5:00 PM64 °FBroken clouds.9 mph73%29.59 "HgN/A
4:30 PM63 °FBroken clouds.7 mph83%29.59 "HgN/A
4:00 PM63 °FBroken clouds.10 mph83%29.62 "Hg6 mi
3:30 PM61 °FBroken clouds.7 mph94%29.62 "Hg6 mi
3:00 PM59 °FMostly cloudy.3 mph88%29.65 "Hg6 mi
2:30 PM57 °FDrizzle. Mostly cloudy.6 mph94%29.65 "Hg4 mi
2:00 PM57 °FDrizzle. Mostly cloudy.7 mph94%29.68 "Hg5 mi
1:30 PM57 °FDrizzle. Mostly cloudy.3 mph94%29.68 "Hg4 mi
1:00 PM55 °FMostly cloudy.3 mph94%29.71 "Hg6 mi
12:30 PM55 °FLight rain. Mostly cloudy.6 mph88%29.71 "Hg5 mi
12:00 PM55 °FLight rain. Partly sunny.5 mph88%29.71 "Hg5 mi
11:30 AM55 °FBroken clouds.7 mph88%29.71 "HgN/A
11:00 AM55 °FMostly cloudy.7 mph88%29.71 "HgN/A
10:30 AM54 °FMostly cloudy.7 mph94%29.71 "Hg5 mi
10:00 AM54 °FLight rain. Mostly cloudy.6 mph94%29.71 "Hg5 mi
9:30 AM54 °FMostly cloudy.6 mph88%29.71 "HgN/A
9:00 AM55 °FBroken clouds.5 mph82%29.71 "HgN/A
8:30 AM54 °FPassing clouds.5 mph82%29.71 "HgN/A
8:00 AM54 °FPassing clouds.3 mph88%29.71 "HgN/A
7:30 AM54 °FPassing clouds.3 mph88%29.71 "HgN/A
7:00 AM54 °FPassing clouds.3 mph88%29.71 "HgN/A
6:30 AM54 °FPassing clouds.3 mph88%29.71 "HgN/A
6:00 AM54 °FPassing clouds.3 mph94%29.74 "HgN/A
5:30 AM55 °FPassing clouds.5 mph94%29.74 "HgN/A
5:00 AM55 °FPassing clouds.5 mph94%29.74 "Hg6 mi
4:30 AM55 °FPassing clouds.3 mph94%29.77 "Hg6 mi
4:00 AM55 °FPassing clouds.3 mph94%29.77 "Hg6 mi
3:30 AM55 °FPassing clouds.2 mph94%29.77 "Hg6 mi
3:00 AM55 °FPassing clouds.2 mph94%29.80 "HgN/A
2:00 AM57 °FPassing clouds.No wind88%29.80 "HgN/A
1:30 AM57 °FPassing clouds.No wind88%29.80 "HgN/A
1:00 AM57 °FPartly cloudy.No wind88%29.80 "HgN/A
12:30 AM57 °FPartly cloudy.No wind88%29.83 "HgN/A
12:00 AM57 °FPartly cloudy.No wind88%29.83 "HgN/A
11:30 PM
Fri, Oct 21
57 °FPartly cloudy.No wind82%29.83 "HgN/A
11:00 PM57 °FPartly cloudy.No wind88%29.83 "HgN/A
Weather by CustomWeather, © 2016

See weather overviewHow to use our weather pages